Galena, AK

12:33 AM AKST on February 13, 2016 (GMT -0900)
Pitka

Weather History for PAGA - April, 2013

Change the Weather History Date:

Friday, April 19, 2013

  Actual Average Record
Temperature  
Mean Temperature 23 °F -  
Max Temperature 39 °F 33 °F 52 °F (1953)
Min Temperature 7 °F 16 °F -14 °F (1966)
Degree Days  
Heating Degree Days 42    
Moisture  
Dew Point 5 °F    
Average Humidity 43    
Maximum Humidity 70    
Minimum Humidity 27    
Precipitation  
Precipitation 0.00 in - - ()
Sea Level Pressure  
Sea Level Pressure 30.53 in    
Wind  
Wind Speed 4 mph (North)    
Max Wind Speed 8 mph    
Max Gust Speed -    
Visibility 10 miles    
Events      
Averages and records for this station are not official NWS values.
T = Trace of Precipitation, MM = Missing Value Source: NWS Daily Summary

Daily Weather History Graph

Daily Weather History Graph

Search for Another Location

Airport or City:

Trip Planner

Search our weather history database for the weather conditions in past years. The results will help you decide how hot, cold, wet, or windy it might be!

Date:

Astronomy

Apr. 19, 2013 Rise Set
Actual Time 6:37 AM AKDT 10:18 PM AKDT
Civil Twilight 5:36 AM AKDT 11:19 PM AKDT
Nautical Twilight 3:58 AM AKDT 1:02 AM AKDT
Astronomical Twilight Sun does not rise Sun does not rise
Moon 2:04 PM AKDT (4/19) 5:14 AM AKDT (4/19)
Length of Visible Light 17h 42m
Length of Day
15h 41m
Waxing Gibbous, 63% of the Moon is Illuminated
Apr 19
Waxing Gibbous
Apr 25
Full
May 2
Last Quarter
May 9
New
May 17
First Quarter

Hourly Weather History & Observations

Time (AKDT) Temp. Windchill Dew Point Humidity Pressure Visibility Wind Dir Wind Speed Gust Speed Precip Events Conditions
12:58 AM 25.0 °F 19.3 °F 5.0 °F 43% 30.51 in 10.0 mi ENE 4.6 mph - N/A   Clear
1:58 AM 21.9 °F - 3.9 °F 46% 30.53 in 10.0 mi Calm Calm - N/A   Clear
2:58 AM 21.0 °F 13.4 °F 3.0 °F 46% 30.54 in 10.0 mi NNW 5.8 mph - N/A   Clear
3:58 AM 16.0 °F 8.8 °F 1.9 °F 54% 30.55 in 10.0 mi North 4.6 mph - N/A   Clear
4:58 AM 14.0 °F - 1.9 °F 59% 30.56 in 10.0 mi Calm Calm - N/A   Clear
5:58 AM 9.0 °F - 1.0 °F 70% 30.56 in 10.0 mi Calm Calm - N/A   Clear
6:58 AM 7.0 °F - -0.9 °F 70% 30.57 in 10.0 mi Calm Calm - N/A   Clear
7:58 AM 8.1 °F - -0.9 °F 67% 30.57 in 9.0 mi Calm Calm - N/A   Clear
8:58 AM 10.0 °F 3.6 °F 1.0 °F 67% 30.58 in 10.0 mi West 3.5 mph - N/A   Clear
9:58 AM 17.1 °F 10.0 °F 3.0 °F 54% 30.58 in 10.0 mi West 4.6 mph - N/A   Clear
10:58 AM 24.1 °F 18.2 °F 5.0 °F 44% 30.58 in 10.0 mi Variable 4.6 mph - N/A   Clear
11:58 AM 26.1 °F 19.4 °F 7.0 °F 44% 30.57 in 9.0 mi Variable 5.8 mph - N/A   Clear
12:58 PM 30.0 °F 26.5 °F 8.1 °F 40% 30.57 in 9.0 mi Variable 3.5 mph - N/A   Clear
1:58 PM 33.1 °F 27.7 °F 3.9 °F 29% 30.56 in 10.0 mi Variable 5.8 mph - N/A   Clear
2:58 PM 35.1 °F 29.3 °F 3.9 °F 27% 30.55 in 10.0 mi Variable 6.9 mph - N/A   Clear
3:58 PM 37.0 °F 31.6 °F 6.1 °F 28% 30.53 in 10.0 mi Variable 6.9 mph - N/A   Clear
4:58 PM 37.9 °F 32.1 °F 7.0 °F 28% 30.52 in 10.0 mi NNE 8.1 mph - N/A   Clear
5:58 PM 39.0 °F 34.0 °F 7.0 °F 27% 30.51 in 10.0 mi North 6.9 mph - N/A   Clear
6:58 PM 39.0 °F 36.8 °F 8.1 °F 28% 30.49 in 10.0 mi Variable 3.5 mph - N/A   Clear
7:58 PM 39.0 °F 34.0 °F 7.0 °F 27% 30.48 in 10.0 mi Variable 6.9 mph - N/A   Clear
8:58 PM 37.9 °F 34.4 °F 7.0 °F 28% 30.47 in 10.0 mi North 4.6 mph - N/A   Clear
9:58 PM 36.0 °F 33.3 °F 7.0 °F 30% 30.47 in 10.0 mi North 3.5 mph - N/A   Clear
10:58 PM 33.1 °F 30.0 °F 7.0 °F 34% 30.46 in 10.0 mi North 3.5 mph - N/A   Clear
11:58 PM 28.0 °F - 10.9 °F 49% 30.45 in 10.0 mi Calm Calm - N/A   Clear